Epoch 2010 Nov. 20.0 TT = JDT 2455520.5 T 2010 Nov. 1.75373 TT MPCW q 2.2113937 (2000.0) P Q n 0.17513864 Peri. 133.44468 +0.02345253 -0.97566288 a 3.1638416 Node 313.80783 +0.80763333 +0.14702128 e 0.3010416 Incl. 17.58403 +0.58921846 -0.16268587 P 5.63 From 29 observations 2011 Jan. 13-2017 Jan. 5, mean residual 0".7.
m1 = 14.0 + 5 log d + 10.0 log r